When you browse on this site, cookies collect data to enhance your experience and personalize the content and advertising you see.
Visit our Privacy Policy to learn more. By continuing to use the site, you agree to this use of cookies and data.
  • In Slovakia
  • List of Countries
  • For 7 days
  • Water Temperature
  • Satellite Maps
  • Weather Map
  • Weather Widgets
  • user-avatar
    Login

    Hourly Weather Mauritius

    Today, 17 December, Monday

    Time Temperature Precipitation Wind Pressure Humidity
    00:00 +24°C° 0.1 mm 7 mps 725 mmHg 74%
    01:00 +24°C° 0.1 mm 7 mps 725 mmHg 74%
    02:00 +24°C° 0 mm 7 mps 725 mmHg 75%
    03:00 +24°C° 0 mm 7 mps 725 mmHg 75%
    04:00 +24°C° 0 mm 8 mps 724 mmHg 77%
    05:00 +24°C° 0 mm 8 mps 725 mmHg 76%
    06:00 +24°C° 0 mm 8 mps 725 mmHg 75%
    07:00 +24°C° 0 mm 8 mps 725 mmHg 73%
    08:00 +24°C° 0 mm 7 mps 725 mmHg 71%
    09:00 +26°C° 0 mm 7 mps 725 mmHg 70%
    10:00 +26°C° 0 mm 7 mps 725 mmHg 68%
    11:00 +27°C° 0 mm 7 mps 725 mmHg 67%
    12:00 +27°C° 0 mm 7 mps 725 mmHg 66%
    13:00 +27°C° 0 mm 7 mps 725 mmHg 65%
    14:00 +27°C° 0 mm 7 mps 725 mmHg 66%
    15:00 +27°C° 0 mm 8 mps 725 mmHg 66%
    16:00 +27°C° 0 mm 7 mps 724 mmHg 67%
    17:00 +26°C° 0 mm 8 mps 724 mmHg 69%
    18:00 +26°C° 0 mm 8 mps 725 mmHg 72%
    19:00 +24°C° 0 mm 8 mps 725 mmHg 74%
    20:00 +24°C° 0.1 mm 8 mps 725 mmHg 74%
    21:00 +24°C° 0.1 mm 8 mps 725 mmHg 74%
    22:00 +24°C° 0.1 mm 9 mps 725 mmHg 75%
    23:00 +24°C° 0.1 mm 9 mps 725 mmHg 75%

    Tomorrow, 18 December, Tuesday

    Time Temperature Precipitation Wind Pressure Humidity
    00:00 +24°C° 0.1 mm 9 mps 725 mmHg 75%
    01:00 +24°C° 0.1 mm 9 mps 725 mmHg 76%
    02:00 +24°C° 0.2 mm 9 mps 724 mmHg 76%
    03:00 +24°C° 0.2 mm 9 mps 724 mmHg 77%
    04:00 +24°C° 0.2 mm 9 mps 724 mmHg 77%
    05:00 +24°C° 0.3 mm 9 mps 724 mmHg 77%
    06:00 +24°C° 0.3 mm 9 mps 724 mmHg 77%
    07:00 +24°C° 0.3 mm 9 mps 724 mmHg 76%
    08:00 +26°C° 0.1 mm 9 mps 725 mmHg 75%
    09:00 +26°C° 0.1 mm 9 mps 725 mmHg 73%
    10:00 +26°C° 0.1 mm 9 mps 725 mmHg 72%
    11:00 +27°C° 0.3 mm 9 mps 725 mmHg 72%
    12:00 +27°C° 0.3 mm 9 mps 724 mmHg 71%
    13:00 +27°C° 0.3 mm 8 mps 724 mmHg 71%
    14:00 +27°C° 0.3 mm 8 mps 724 mmHg 71%
    15:00 +27°C° 0.3 mm 8 mps 724 mmHg 72%
    16:00 +27°C° 0.3 mm 8 mps 723 mmHg 73%
    17:00 +26°C° 0.1 mm 8 mps 724 mmHg 74%
    18:00 +26°C° 0.1 mm 8 mps 724 mmHg 76%
    19:00 +26°C° 0.1 mm 8 mps 724 mmHg 78%
    20:00 +26°C° 0.2 mm 8 mps 724 mmHg 78%
    21:00 +26°C° 0.2 mm 8 mps 725 mmHg 78%
    22:00 +24°C° 0.2 mm 8 mps 725 mmHg 79%
    23:00 +24°C° 0.2 mm 8 mps 725 mmHg 79%

    Day after tomorrow, 19 December, Wednesday

    Time Temperature Precipitation Wind Pressure Humidity
    00:00 +24°C° 0.2 mm 9 mps 724 mmHg 80%
    01:00 +24°C° 0.2 mm 9 mps 724 mmHg 80%
    02:00 +24°C° 0.1 mm 9 mps 724 mmHg 80%
    03:00 +24°C° 0.1 mm 9 mps 723 mmHg 79%
    04:00 +24°C° 0.1 mm 9 mps 723 mmHg 79%
    05:00 +24°C° 0 mm 9 mps 723 mmHg 77%
    06:00 +24°C° 0 mm 9 mps 724 mmHg 76%
    07:00 +26°C° 0 mm 9 mps 724 mmHg 74%
    08:00 +26°C° 0 mm 9 mps 724 mmHg 73%
    09:00 +26°C° 0 mm 9 mps 724 mmHg 71%
    10:00 +27°C° 0 mm 9 mps 724 mmHg 69%
    11:00 +27°C° 0 mm 8 mps 724 mmHg 68%
    12:00 +27°C° 0 mm 8 mps 724 mmHg 68%
    13:00 +27°C° 0 mm 8 mps 724 mmHg 68%
    14:00 +27°C° 0 mm 8 mps 723 mmHg 68%
    15:00 +27°C° 0 mm 8 mps 723 mmHg 69%
    16:00 +27°C° 0 mm 8 mps 723 mmHg 70%
    17:00 +27°C° 0.1 mm 8 mps 723 mmHg 72%
    18:00 +26°C° 0.1 mm 8 mps 723 mmHg 74%
    19:00 +26°C° 0.1 mm 8 mps 723 mmHg 76%
    20:00 +26°C° 0.1 mm 8 mps 724 mmHg 76%
    21:00 +26°C° 0.1 mm 8 mps 724 mmHg 77%
    22:00 +26°C° 0.1 mm 8 mps 725 mmHg 77%
    23:00 +24°C° 0 mm 8 mps 724 mmHg 77%

    20 December, Thursday

    Time Temperature Precipitation Wind Pressure Humidity
    00:00 +24°C° 0 mm 7 mps 724 mmHg 77%
    01:00 +24°C° 0 mm 7 mps 723 mmHg 77%
    02:00 +24°C° 0 mm 7 mps 723 mmHg 77%
    03:00 +24°C° 0 mm 8 mps 723 mmHg 78%
    04:00 +24°C° 0 mm 8 mps 722 mmHg 78%
    05:00 +24°C° 0 mm 8 mps 723 mmHg 77%
    06:00 +24°C° 0 mm 9 mps 723 mmHg 75%
    07:00 +24°C° 0 mm 9 mps 723 mmHg 74%
    08:00 +26°C° 0 mm 9 mps 723 mmHg 72%
    09:00 +26°C° 0 mm 9 mps 723 mmHg 69%
    10:00 +27°C° 0 mm 9 mps 723 mmHg 67%
    11:00 +27°C° 0 mm 9 mps 723 mmHg 66%
    12:00 +27°C° 0 mm 8 mps 723 mmHg 66%
    13:00 +28°C° 0 mm 8 mps 722 mmHg 65%
    14:00 +27°C° 0 mm 8 mps 722 mmHg 66%
    15:00 +27°C° 0 mm 8 mps 722 mmHg 67%
    16:00 +27°C° 0 mm 8 mps 721 mmHg 68%
    17:00 +27°C° 0 mm 8 mps 721 mmHg 69%
    18:00 +26°C° 0 mm 8 mps 722 mmHg 71%
    19:00 +26°C° 0 mm 7 mps 722 mmHg 73%
    20:00 +26°C° 0 mm 7 mps 722 mmHg 74%
    21:00 +26°C° 0 mm 7 mps 722 mmHg 74%
    22:00 +26°C° 0 mm 7 mps 723 mmHg 75%
    23:00 +24°C° 0 mm 7 mps 722 mmHg 76%

    21 December, Friday

    Time Temperature Precipitation Wind Pressure Humidity
    00:00 +24°C° 0 mm 7 mps 722 mmHg 76%
    01:00 +24°C° 0 mm 7 mps 721 mmHg 77%
    02:00 +24°C° 0 mm 7 mps 721 mmHg 76%
    03:00 +24°C° 0 mm 7 mps 720 mmHg 76%
    04:00 +24°C° 0 mm 7 mps 720 mmHg 76%
    05:00 +24°C° 0 mm 7 mps 720 mmHg 76%
    06:00 +24°C° 0 mm 7 mps 721 mmHg 75%
    07:00 +24°C° 0 mm 7 mps 721 mmHg 75%
    08:00 +26°C° 0 mm 7 mps 721 mmHg 72%
    09:00 +27°C° 0 mm 7 mps 721 mmHg 70%
    10:00 +27°C° 0 mm 7 mps 721 mmHg 68%
    11:00 +28°C° 0 mm 7 mps 720 mmHg 68%
    12:00 +28°C° 0 mm 7 mps 720 mmHg 67%
    13:00 +28°C° 0 mm 7 mps 720 mmHg 67%
    14:00 +28°C° 0.1 mm 7 mps 719 mmHg 69%
    15:00 +28°C° 0.1 mm 7 mps 719 mmHg 70%
    16:00 +27°C° 0.1 mm 7 mps 718 mmHg 72%
    17:00 +27°C° 0.3 mm 7 mps 719 mmHg 75%
    18:00 +27°C° 0.3 mm 7 mps 719 mmHg 77%
    19:00 +26°C° 0.3 mm 7 mps 719 mmHg 79%
    20:00 +26°C° 0.9 mm 7 mps 719 mmHg 80%
    21:00 +26°C° 0.9 mm 8 mps 719 mmHg 81%
    22:00 +26°C° 0.9 mm 8 mps 720 mmHg 81%
    23:00 +26°C° 1.1 mm 8 mps 719 mmHg 82%

    22 December, Saturday

    Time Temperature Precipitation Wind Pressure Humidity
    00:00 +26°C° 1.1 mm 8 mps 718 mmHg 83%
    01:00 +26°C° 1.1 mm 8 mps 718 mmHg 83%
    02:00 +24°C° 1.7 mm 8 mps 718 mmHg 84%
    03:00 +24°C° 1.7 mm 8 mps 717 mmHg 85%
    04:00 +24°C° 1.7 mm 8 mps 717 mmHg 86%
    05:00 +24°C° 2 mm 8 mps 717 mmHg 86%
    06:00 +24°C° 2 mm 8 mps 718 mmHg 87%
    07:00 +24°C° 2 mm 8 mps 718 mmHg 88%
    08:00 +24°C° 1.9 mm 8 mps 718 mmHg 88%
    09:00 +24°C° 1.9 mm 7 mps 718 mmHg 88%
    10:00 +24°C° 1.9 mm 7 mps 718 mmHg 88%
    11:00 +24°C° 0.9 mm 7 mps 717 mmHg 87%
    12:00 +26°C° 0.9 mm 7 mps 717 mmHg 87%
    13:00 +26°C° 0.9 mm 7 mps 717 mmHg 86%
    14:00 +26°C° 1.4 mm 7 mps 716 mmHg 84%
    15:00 +26°C° 1.4 mm 7 mps 716 mmHg 82%
    16:00 +26°C° 1.4 mm 7 mps 716 mmHg 80%
    17:00 +26°C° 2.3 mm 8 mps 716 mmHg 82%
    18:00 +26°C° 2.3 mm 9 mps 716 mmHg 85%
    19:00 +26°C° 2.3 mm 10 mps 716 mmHg 87%
    20:00 +26°C° 0.4 mm 11 mps 717 mmHg 87%
    21:00 +26°C° 0.4 mm 11 mps 717 mmHg 86%
    22:00 +26°C° 0.4 mm 11 mps 717 mmHg 85%
    23:00 +26°C° 0.1 mm 11 mps 716 mmHg 85%
    Show more